Погода в Каспле-2

Россия / Смоленская область     54°59′12″N   31°38′03″E
темп.,
°C
ветер,
м/с
пор.,
м/с
влажн.,
%
обл.,
%
осадки,
мм/ч
давл.,
гПа
погр.,
м
18 апреля, вс
вс1800:00+9св5137841 0.1 1018527
03:00+7св51282100 0.1 1018438
06:00+6св4128129 0.0 1019395
09:00+8св5106897 0.0 1019694
12:00+12всв575740 0.0 10201214
15:00+13всв574978 0.0 10201754
18:00+12всв3854100 0.0 1020557
21:00+8юв358198 0.0 1022236
19 апреля, пн
пн1900:00+7всв310815 0.0 1022528
03:00+5св3108811 0.0 1023448
06:00+6всв41081100 0.0 1023658
09:00+8всв477551 0.0 1023832
12:00+8св5777100 0.1 1023879
15:00+7всв5781100 0.2 1024829
18:00+6всв4785100 0.1 1023974
21:00+6всв4885100 0.1 1023887
20 апреля, вт
вт2000:00+5всв3887100 0.1 1023669
03:00+5всв4885100 0.1 1022604
06:00+3всв4989100 0.0 1021608
09:00+3всв4995100 0.1 1020545
12:00+4всв5784100 0.2 1018812
15:00+3св3897100 0.4 1017536
18:00+3св4896100 0.1 1015502
21:00+3ссв3897100 0.1 1013411
21 апреля, ср
ср2100:00+3с4897100 0.1 1010540
03:00+2с4997100 0.3 1007572
06:00+2ссз41097100 1.6 1004528
09:00+2сз51097100 3.2 1004606
12:00+3зсз51097100 1.4 1004710
15:00+6зсз41078100 2.1 10051265
18:00+6з4975100 0.1 10071113
21:00+4юз2386100 0.1 100959
22 апреля, чт
чт2200:00+3юз3791100 0.0 1010156
03:00+3юз389294 0.0 1011162
06:00+2ююз24925 0.0 101278
09:00+8ю35725 0.0 1013346
12:00+12ю465254 0.0 10131459
15:00+13ю575538 0.7 10121629
18:00+13ю47598 0.8 1011719
21:00+9ююв3977100 1.0 1011208